Regional Weather Roundup
Issued by NWS

Home | Current Version | Previous Version | Text Only | Print | Product List | Glossary Off
Versions: 1 2 3 4 5 6 7 8 9 10 11 12 13 14 15 16 17 18 19 20 21 22 23 24 25 26 27 28 29 30 31 32 33 34 35 36 37 38 39 40 41 42 43 44 45 46 47 48 49 50

000
ASUS43 KLMK 311010
RWRKY
KENTUCKY REGIONAL WEATHER ROUNDUP
NATIONAL WEATHER SERVICE LOUISVILLE KY
600 AM EDT MON AUG 31 2015

NOTE "FAIR" INDICATES FEW OR NO CLOUDS BELOW 12,000 FEET
WITH NO SIGNIFICANT WEATHER AND/OR OBSTRUCTIONS TO VISIBILITY.

KYZ001>023-026-027-061>063-070>075-311100-
WESTERN AND SOUTH CENTRAL KENTUCKY

CITY           SKY/WX    TMP DP  RH WIND       PRES   REMARKS
PADUCAH        FOG       65  63  93 CALM      30.06R VSB 3/4
HENDERSON      CLEAR     64  61  88 CALM      30.06R
OWENSBORO      CLEAR     67  66  96 SE6       30.08R
HOPKINSVILLE   CLEAR     67  65  94 CALM      30.08R
BOWLING GREEN  CLEAR     63  60  90 CALM      30.09S FOG
GLASGOW        CLEAR     61  61 100 CALM      30.10R FOG
$$

KYZ024-025-028>034-038-045-046-053-311100-
NORTH CENTRAL KENTUCKY

CITY           SKY/WX    TMP DP  RH WIND       PRES   REMARKS
LOUISVILLE/SDF MOCLDY    69  65  86 SE3       30.08R
LOUISVILLE/LOU CLEAR     68  65  90 CALM      30.09R
FORT KNOX      CLEAR     62  61  96 CALM      30.08R
$$

KYZ035>037-039>044-047>052-055>060-089>105-311100-
NORTHEAST KENTUCKY

CITY           SKY/WX    TMP DP  RH WIND       PRES   REMARKS
LEXINGTON      CLOUDY    66  63  90 CALM      30.10S
COVINGTON      CLEAR     67  65  93 CALM      30.09R
FRANKFORT      PTCLDY    65  63  93 CALM      30.09R
$$

KYZ054-064>069-076>088-106>120-311100-
SOUTHEAST KENTUCKY

CITY           SKY/WX    TMP DP  RH WIND       PRES   REMARKS
JACKSON        FOG       67  65  93 CALM      30.12R VSB 1/4
LONDON         PTCLDY    68  62  81 CALM      30.12R
SOMERSET       FOG       63  63 100 CALM      30.12R VSB 1/4
MIDDLESBORO    CLEAR     63  62  98 CALM      30.14R
MONTICELLO     MOSUNNY   61  61 100 CALM      30.14R FOG
$$




USA.gov is the U.S. government's official web portal to all federal, state and local government web resources and services.